Regional Weather Roundup
Issued by NWS

Home | Current Version | Previous Version | Text Only | Print | Product List | Glossary On
Versions: 1 2 3 4 5 6 7 8 9 10 11 12 13 14 15 16 17 18 19 20 21 22 23 24 25 26 27 28 29 30 31 32 33 34 35 36 37 38 39 40 41 42 43 44 45 46 47 48 49 50
000
ASUS43 KLMK 301510
RWRKY
KENTUCKY REGIONAL WEATHER ROUNDUP
NATIONAL WEATHER SERVICE LOUISVILLE KY
1100 AM EDT SUN AUG 30 2015

NOTE "FAIR" INDICATES FEW OR NO CLOUDS BELOW 12,000 FEET
WITH NO SIGNIFICANT WEATHER AND/OR OBSTRUCTIONS TO VISIBILITY.

KYZ001>023-026-027-061>063-070>075-301600-
WESTERN AND SOUTH CENTRAL KENTUCKY

CITY           SKY/WX    TMP DP  RH WIND       PRES   REMARKS
PADUCAH        CLOUDY    74  69  85 S3        30.08S
HENDERSON      CLOUDY    77  66  69 S5        30.08R
OWENSBORO      CLOUDY    76  71  84 S9        30.10S
HOPKINSVILLE   MOSUNNY   80  68  65 S9        30.11S
BOWLING GREEN  CLOUDY    80  66  62 W8        30.14R
GLASGOW        PTSUNNY   76  67  71 SW5       30.15S
$$

KYZ024-025-028>034-038-045-046-053-301600-
NORTH CENTRAL KENTUCKY

CITY           SKY/WX    TMP DP  RH WIND       PRES   REMARKS
LOUISVILLE/SDF PTSUNNY   80  67  64 SW8       30.11S
LOUISVILLE/LOU PTSUNNY   78  66  66 SW9       30.12S
FORT KNOX      CLOUDY    76  67  74 S7        30.11S
$$

KYZ035>037-039>044-047>052-055>060-089>105-301600-
NORTHEAST KENTUCKY

CITY           SKY/WX    TMP DP  RH WIND       PRES   REMARKS
LEXINGTON      MOSUNNY   76  67  73 SW12      30.16R
COVINGTON      PTSUNNY   75  69  81 SW6       30.13R
FRANKFORT      MOSUNNY   77  66  68 SW10      30.13S
$$

KYZ054-064>069-076>088-106>120-301600-
SOUTHEAST KENTUCKY

CITY           SKY/WX    TMP DP  RH WIND       PRES   REMARKS
JACKSON        CLOUDY    73  65  75 VRB3      30.20R
LONDON         CLOUDY    77  64  64 CALM      30.19R
SOMERSET       PTSUNNY   72  63  73 S5        30.19R
MIDDLESBORO    CLOUDY    69  66  88 CALM      30.21R
MONTICELLO     CLOUDY    77  67  71 CALM      30.20R
$$



USA.gov is the U.S. government's official web portal to all federal, state and local government web resources and services.